sat.trackr.live / text

‹ back to catalog

STARLINK-34891

NORAD 65373 · 2025-190Y

PAYLOAD ACTIVE UNKNOWN

§ Identity

Operator
Country
US
Launch date
2025-08-28
Launch site
AFETR
Launch vehicle
Mass (kg)
RCS (m²)

Purposes: comms

External: N2YO · Heavens-Above · Gunter

§ Orbital elements

Epoch: 2026-05-25T01:46:31.959264Z

Period
93.85 min
Inclination
53.1588°
Eccentricity
0.0001251
Mean motion
15.34400122 rev/d
Perigee alt
461.8 km
Apogee alt
463.6 km
Semi-major
6,840.8 km
B*
6.3082e-4
RAAN
173.1133°
Arg perigee
80.8449°
Mean anomaly
279.2695°
Rev number
4,093

§ Raw data

STARLINK-348911 65373U 25190Y   26145.07398101  .00020997  00000+0  63082-3 0  99962 65373  53.1588 173.1133 0001251  80.8449 279.2695 15.34400122 40935

JSON: /api/v1/satellites/65373 · /tle

For live sub-satellite position, see the globe view (requires WebGL).

§ Visibility from observer

Set your observer location to see the next 7 days of passes ≥ 10°. The values pass through the URL so the page stays shareable.

No JS? Fill the form by hand. The geolocation button needs JavaScript.